Location: Lalanga
(4.5882°N, 32.9072°E)
Time: 14:02:21
(UTC+00:00)

Cosmos 1605 Rocket - Pass Details

Date: 24 January 2020
Orbit: 945 x 1005 km, 82.9° (Epoch: 22 February)

Event Time Altitude Azimuth Distance (km) Brightness Sun altitude
Rises 17:48:53 0° 190° (S) 3,641 7.4 -27.1°
Reaches altitude 10° 17:51:23 10° 192° (SSW) 2,702 6.7 -27.7°
Maximum altitude 17:57:30 65° 273° (W) 1,064 4.3 -29.1°
Enters shadow 18:00:26 32° 344° (NNW) 1,602 5.0 -29.8°
